Location: Unspecified
(0.0000°N, 0.0000°E)
Time: 06:06:37
(UTC+00:00)

Vanguard 2 - Pass Details

Date: 25 September 2019
Orbit: 554 x 2937 km, 32.9° (Epoch: 14 October)

Event Time Altitude Azimuth Distance (km) Brightness Sun altitude
Rises 02:03:49 0° 281° (WNW) 6,768 - -57.0°
Reaches altitude 10° 02:11:14 10° 299° (WNW) 5,571 - -55.2°
Maximum altitude 02:20:24 17° 333° (NNW) 4,541 - -52.9°
Exits shadow 02:26:33 12° 2° (N) 4,455 11.3 -51.3°
Drops below altitude 10° 02:28:06 10° 9° (N) 4,534 11.5 -51.0°
Sets 02:33:09 0° 29° (NNE) 5,066 12.0 -49.7°
